GLOBALSTAR M001 1 25162U 98008A 26093.73930179 -.00000046 00000+0 38699-3 0 9998 2 25162 52.0024 207.5323 0002094 142.9903 22.9747 12.38230639279709 GLOBALSTAR M004 1 25163U 98008B 26093.72310473 -.00000101 00000+0 15515-4 0 9992 2 25163 51.9997 247.7810 0003097 200.5187 172.9727 12.63417834298418 GLOBALSTAR M002 1 25164U 98008C 26093.69419174 -.00000075 00000+0 24335-4 0 9997 2 25164 52.0004 231.8010 0000603 330.9651 29.1136 11.61515630217823 GLOBALSTAR M003 1 25165U 98008D 26093.67563479 -.00000195 00000+0 -11256-2 0 9994 2 25165 51.9837 83.9168 0008090 154.1000 17.0885 12.12019354268448 GLOBALSTAR M014 1 25306U 98023A 26093.63140530 -.00000030 00000+0 88302-3 0 9997 2 25306 51.9819 149.0747 0001315 169.4010 0.1669 11.65485815225032 GLOBALSTAR M006 1 25307U 98023B 26093.73957192 -.00000062 00000+0 27778-3 0 9994 2 25307 51.9930 212.1348 0002713 266.9062 242.3513 11.58178993250493 GLOBALSTAR M015 1 25308U 98023C 26093.82670539 -.00000076 00000+0 -56469-4 0 9998 2 25308 51.9850 323.7148 0012122 232.1077 210.1344 11.48860786227483 GLOBALSTAR M008 1 25309U 98023D 26093.71821743 -.00000075 00000+0 16538-3 0 9992 2 25309 51.9965 75.7160 0002926 66.7419 103.9553 12.36082337273771 GLOBALSTAR M023 1 25621U 99004A 26093.73726132 -.00000028 00000+0 42414-3 0 9997 2 25621 52.0096 248.6963 0010272 52.3513 321.1193 12.62521530252432 GLOBALSTAR M040 1 25622U 99004B 26093.74575140 -.00000038 00000+0 36629-3 0 9992 2 25622 51.9907 253.2523 0000293 20.8935 352.7136 12.62032236251948 GLOBALSTAR M036 1 25623U 99004C 26093.67554917 .00000047 00000+0 18948-2 0 9996 2 25623 51.9960 194.6371 0010188 245.9961 262.7732 11.86623587213467 GLOBALSTAR M038 1 25624U 99004D 26093.82738729 -.00000058 00000+0 30589-3 0 9998 2 25624 51.9988 314.5502 0001127 323.7828 118.4100 12.32543090238215 GLOBALSTAR M022 1 25649U 99012A 26093.77217990 -.00000040 00000+0 56282-3 0 9999 2 25649 52.0033 220.9487 0002589 40.2700 112.1940 12.02511804211332 GLOBALSTAR M041 1 25650U 99012B 26093.47296767 -.00000061 00000+0 31404-3 0 9999 2 25650 52.0001 112.0634 0001332 174.3451 185.7401 11.96682616213030 GLOBALSTAR M046 1 25651U 99012C 26093.50582981 -.00000013 00000+0 83059-3 0 9990 2 25651 52.0042 161.2112 0002264 116.0593 257.6835 12.09422476218797 GLOBALSTAR M037 1 25652U 99012D 26093.72779542 -.00000068 00000+0 19923-3 0 9995 2 25652 52.0033 19.2330 0002435 100.0719 269.8245 12.62463826247970 GLOBALSTAR M045 1 25676U 99019A 26093.56661050 -.00000144 00000+0 -44271-3 0 9994 2 25676 51.9965 197.6151 0000639 131.9340 241.3951 12.27073633229048 GLOBALSTAR M019 1 25677U 99019B 26093.46597397 -.00000023 00000+0 70205-3 0 9997 2 25677 51.9909 348.6989 0001276 152.5567 18.2637 12.13882659220394 GLOBALSTAR M044 1 25678U 99019C 26093.83103447 -.00000016 00000+0 94873-3 0 9997 2 25678 51.9998 335.4033 0005532 237.3839 201.3460 11.90264759205931 GLOBALSTAR M042 1 25679U 99019D 26093.82755177 -.00000033 00000+0 55242-3 0 9996 2 25679 52.0023 310.4593 0002913 162.5341 279.7361 12.22095440220799 GLOBALSTAR M025 1 25770U 99031A 26093.79732397 -.00000072 00000+0 -15272-3 0 9990 2 25770 51.9804 206.0481 0001900 243.7928 287.0718 11.22560683514340 GLOBALSTAR M049 1 25771U 99031B 26093.75548784 -.00000113 00000+0 -16621-2 0 9996 2 25771 51.9862 255.5095 0003347 139.2822 220.8225 11.12123850149751 GLOBALSTAR M047 1 25772U 99031C 26093.76911557 -.00000070 00000+0 -50840-5 0 9996 2 25772 51.9820 224.6854 0016419 44.9031 315.3101 11.31933105504014 GLOBALSTAR M052 1 25773U 99031D 26093.52296169 -.00000078 00000+0 -39393-3 0 9992 2 25773 51.9911 0.6285 0002108 304.0970 227.5503 11.15063774510899 GLOBALSTAR M035 1 25851U 99037A 26093.26539629 -.00000017 00000+0 17754-2 0 9995 2 25851 51.9922 128.0577 0013580 93.6133 347.4164 11.04541303128319 GLOBALSTAR M032 1 25852U 99037B 26093.81089307 -.00000079 00000+0 -40792-3 0 9998 2 25852 51.9961 291.9939 0012009 297.3746 62.5832 11.19069334167329 GLOBALSTAR M051 1 25853U 99037C 26093.24696669 -.00000070 00000+0 42349-4 0 9992 2 25853 51.9801 61.1537 0000251 113.7406 246.3431 11.42201216165535 GLOBALSTAR M030 1 25854U 99037D 26093.75300563 -.00000007 00000+0 14495-2 0 9993 2 25854 51.9864 207.5616 0003865 188.2082 171.8672 11.55107436183622 GLOBALSTAR M048 1 25872U 99041A 26093.53182225 -.00000056 00000+0 38091-3 0 9990 2 25872 51.9413 6.7261 0013192 330.1872 200.8392 11.33862919157911 GLOBALSTAR M026 1 25873U 99041B 26093.66409998 -.00000029 00000+0 12782-2 0 9992 2 25873 51.9994 242.0647 0001826 51.3365 321.4639 11.06842854180656 GLOBALSTAR M043 1 25874U 99041C 26093.35342422 -.00000011 00000+0 17086-2 0 9990 2 25874 51.9372 126.3527 0013448 87.8376 284.7993 11.25699371155557 GLOBALSTAR M028 1 25875U 99041D 26093.59563248 -.00000122 00000+0 -14292-3 0 9999 2 25875 51.9637 47.1030 0063531 342.5848 17.2835 12.50598257226513 GLOBALSTAR M024 1 25883U 99043A 26093.69124161 -.00000129 00000+0 -22649-2 0 9999 2 25883 52.0005 85.1363 0001475 214.3863 316.1323 11.10171884147126 GLOBALSTAR M027 1 25884U 99043B 26093.58827702 -.00000045 00000+0 69253-3 0 9998 2 25884 52.0189 171.5826 0021694 101.3692 258.9539 11.04373507173326 GLOBALSTAR M054 1 25885U 99043C 26093.71613425 -.00000053 00000+0 45628-3 0 9998 2 25885 52.0128 249.8376 0004096 325.1503 47.7404 11.39225920152160 GLOBALSTAR M053 1 25886U 99043D 26093.62767060 -.00000063 00000+0 15725-3 0 9990 2 25886 51.9971 213.2589 0003682 202.9972 170.6189 11.27671152152219 GLOBALSTAR M058 1 25907U 99049A 26093.57237083 -.00000040 00000+0 59677-3 0 9990 2 25907 51.9954 53.7570 0002308 107.3067 252.8021 11.93209771576202 GLOBALSTAR M050 1 25908U 99049B 26093.84950522 -.00000125 00000+0 -41229-3 0 9990 2 25908 52.0011 38.9772 0008578 251.7840 137.5099 12.07466471183303 GLOBALSTAR M033 1 25909U 99049C 26093.79988940 .00000001 00000+0 89232-3 0 9997 2 25909 51.9899 250.8773 0015109 140.0370 220.1592 12.20305205571229 GLOBALSTAR M055 1 25910U 99049D 26093.74170597 -.00000098 00000+0 -35808-4 0 9994 2 25910 52.0009 247.6377 0006886 22.6552 337.4602 12.29442431204026 GLOBALSTAR M057 1 25943U 99058A 26093.71264262 -.00000059 00000+0 31055-3 0 9995 2 25943 51.9976 243.6833 0001882 239.2326 120.8339 12.24837297202530 GLOBALSTAR M059 1 25944U 99058B 26093.57009832 .00000014 00000+0 12386-2 0 9995 2 25944 51.9998 141.5808 0000701 177.6167 349.9773 11.99996376608902 GLOBALSTAR M056 1 25945U 99058C 26093.37338183 -.00000065 00000+0 26546-3 0 9999 2 25945 51.9946 136.6371 0001049 50.7602 322.6197 12.04788735197600 GLOBALSTAR M031 1 25946U 99058D 26093.80710883 -.00000053 00000+0 38487-3 0 9993 2 25946 52.0001 10.3688 0001960 57.0785 355.5385 12.16051600199904 GLOBALSTAR M039 1 25961U 99062A 26093.27916700 -.00000058 00000+0 25608-3 0 9998 2 25961 51.9830 105.1348 0002475 270.8189 89.2394 12.62344551216856 GLOBALSTAR M034 1 25962U 99062B 26093.89224822 -.00000048 00000+0 52152-3 0 9997 2 25962 51.9902 335.7162 0013493 229.0831 214.7319 11.79456467172696 GLOBALSTAR M029 1 25963U 99062C 26093.26602951 -.00000080 00000+0 75848-4 0 9996 2 25963 51.9831 30.1889 0002498 336.3939 190.7038 11.99909360203945 GLOBALSTAR M061 1 25964U 99062D 26093.64336584 -.00000054 00000+0 43409-3 0 9993 2 25964 51.9779 164.2544 0006427 151.5608 16.9812 11.76777364155374 GLOBALSTAR M063 1 26081U 00008A 26093.65121681 -.00000091 00000+0 -12267-3 0 9997 2 26081 51.9954 66.5804 0004555 147.0865 23.6964 11.86182623192045 GLOBALSTAR M062 1 26082U 00008B 26093.78506275 -.00000098 00000+0 38976-5 0 9991 2 26082 51.9867 321.2083 0007660 19.5300 57.6852 12.43483632532775 GLOBALSTAR M060 1 26083U 00008C 26093.81641952 -.00000027 00000+0 63378-3 0 9992 2 26083 52.0033 322.2446 0003320 11.5297 68.5625 12.17679485187772 GLOBALSTAR M064 1 26084U 00008D 26093.45404629 -.00000034 00000+0 70262-3 0 9999 2 26084 52.0018 162.5118 0001462 238.1387 121.9303 11.88543576201614 GLOBALSTAR M065 1 31571U 07020A 26093.67582267 -.00000025 00000+0 44242-3 0 9995 2 31571 51.9899 62.0945 0009439 231.3796 300.0480 12.62024268870083 GLOBALSTAR M069 1 31573U 07020C 26093.34631207 -.00000074 00000+0 16901-3 0 9995 2 31573 52.0014 103.9533 0001727 356.4831 17.6036 12.23470139869642 GLOBALSTAR M072 1 31574U 07020D 26093.74186300 -.00000072 00000+0 17035-3 0 9996 2 31574 51.9939 298.4425 0001612 137.0270 315.5234 11.91656912866107 GLOBALSTAR M071 1 31576U 07020F 26093.59626848 -.00000064 00000+0 27039-3 0 9993 2 31576 52.0044 137.0515 0000567 333.5708 194.2421 12.18268021530336 GLOBALSTAR M067 1 32263U 07048A 26093.86102485 -.00000074 00000+0 17716-3 0 9995 2 32263 51.9722 265.3836 0000791 193.1955 314.5658 12.40686470845565 GLOBALSTAR M070 1 32264U 07048B 26093.80995155 -.00000049 00000+0 30715-3 0 9990 2 32264 51.9766 323.1373 0000989 83.7173 355.6767 12.62332648850379 GLOBALSTAR M066 1 32265U 07048C 26093.83636969 -.00000104 00000+0 -78097-4 0 9998 2 32265 51.9580 271.3540 0004064 239.3853 229.7208 12.30387944851079 GLOBALSTAR M068 1 32266U 07048D 26093.56949109 -.00000031 00000+0 40135-3 0 9991 2 32266 51.9870 137.0579 0001118 70.5761 94.1321 12.62843985854241 GLOBALSTAR M079 1 37188U 10054A 26093.09247806 -.00000069 00000+0 19156-3 0 9993 2 37188 52.0062 337.2707 0000664 104.7933 60.0282 12.62264628713060 GLOBALSTAR M074 1 37189U 10054B 26093.89273368 -.00000063 00000+0 22499-3 0 9992 2 37189 52.0041 334.1124 0000621 75.2845 7.3344 12.62267050713777 GLOBALSTAR M076 1 37190U 10054C 26093.83892846 -.00000069 00000+0 19341-3 0 9994 2 37190 52.0053 334.4721 0000429 91.0240 347.4679 12.62271237713488 GLOBALSTAR M077 1 37191U 10054D 26093.90316064 -.00000093 00000+0 -27479-3 0 9995 2 37191 52.0019 7.8614 0000639 144.6987 293.4437 11.68156227712464 GLOBALSTAR M075 1 37192U 10054E 26093.15271672 -.00000083 00000+0 11386-3 0 9996 2 37192 51.9974 18.6546 0000602 74.7375 63.7399 12.62265370712461 GLOBALSTAR M073 1 37193U 10054F 26093.52339501 -.00000085 00000+0 10365-3 0 9992 2 37193 52.0062 291.5717 0000684 112.2697 270.4441 12.62266122714507 GLOBALSTAR M083 1 37739U 11033A 26093.80123705 -.00000075 00000+0 15964-3 0 9993 2 37739 51.9854 239.0537 0000761 128.3233 19.4083 12.62262266683555 GLOBALSTAR M088 1 37740U 11033B 26093.44870970 -.00000066 00000+0 21108-3 0 9995 2 37740 52.0202 146.3758 0000339 116.0618 347.0279 12.62262745679052 GLOBALSTAR M091 1 37741U 11033C 26093.36300454 -.00000092 00000+0 64236-4 0 9991 2 37741 51.9981 109.7101 0000413 107.7753 266.7900 12.62270786679838 GLOBALSTAR M085 1 37742U 11033D 26093.62194721 -.00000112 00000+0 -48027-4 0 9993 2 37742 52.0131 60.1462 0000536 95.7733 76.2286 12.62269995680370 GLOBALSTAR M081 1 37743U 11033E 26093.64825941 -.00000113 00000+0 -52166-4 0 9991 2 37743 51.9959 62.5877 0000292 83.9575 87.1285 12.62263354680525 GLOBALSTAR M089 1 37744U 11033F 26093.52936425 -.00000086 00000+0 10056-3 0 9998 2 37744 51.9958 17.1251 0000486 42.9744 127.8006 12.62265374681354 GLOBALSTAR M084 1 38040U 11080A 26093.85730691 -.00000096 00000+0 41668-4 0 9998 2 38040 51.9998 243.5691 0000473 99.5989 62.0071 12.62266137659373 GLOBALSTAR M080 1 38041U 11080B 26093.71692153 -.00000104 00000+0 34173-7 0 9990 2 38041 52.0051 245.6895 0001168 105.4532 267.5284 12.62267989659484 GLOBALSTAR M082 1 38042U 11080C 26093.57392828 -.00000087 00000+0 94504-4 0 9992 2 38042 52.0068 201.6172 0000938 118.4694 254.4375 12.62268694660178 GLOBALSTAR M092 1 38043U 11080D 26093.88513947 -.00000064 00000+0 22262-3 0 9990 2 38043 52.0085 291.0646 0000755 92.3804 15.0236 12.62265736658669 GLOBALSTAR M090 1 38044U 11080E 26093.20296485 -.00000093 00000+0 62683-4 0 9996 2 38044 52.0118 196.6779 0000662 130.1219 235.4950 12.62272123660248 GLOBALSTAR M086 1 38045U 11080F 26093.54418724 -.00000068 00000+0 19891-3 0 9990 2 38045 51.9889 195.6914 0000827 213.6955 159.1824 12.62284814660230 GLOBALSTAR M097 1 39072U 13005A 26093.33320109 -.00000090 00000+0 74469-4 0 9994 2 39072 52.0031 111.1933 0000372 125.6898 234.4003 12.62260225607450 GLOBALSTAR M093 1 39073U 13005B 26093.70294406 -.00000096 00000+0 43787-4 0 9991 2 39073 52.0090 103.3883 0000427 144.6081 215.4814 12.62264396607451 GLOBALSTAR M094 1 39074U 13005C 26093.46551871 -.00000099 00000+0 29085-4 0 9995 2 39074 51.9987 18.3038 0000551 98.2735 261.8194 12.62267204609033 GLOBALSTAR M096 1 39075U 13005D 26093.63712669 -.00000119 00000+0 -86950-4 0 9997 2 39075 52.0076 66.5214 0000421 99.3935 260.6979 12.62263938607975 GLOBALSTAR M078 1 39076U 13005E 26093.53103281 .00000045 00000+0 83144-3 0 9998 2 39076 51.9861 150.9587 0001271 106.1894 253.9113 12.62277029606589 GLOBALSTAR M095 1 39077U 13005F 26093.55773491 -.00000061 00000+0 24022-3 0 9996 2 39077 52.0067 148.3766 0000819 128.9566 231.1374 12.62267109606445 GLOBALSTAR M087 1 52888U 22064A 26093.80876288 -.00000092 00000+0 66021-4 0 9992 2 52888 51.9996 288.8968 0000924 111.9696 248.1269 12.62267985181740